| time (UTC) | temp C | wind direction | speed KPH | gust KPH | rain 1hr cm | rain 24hr cm | rain mn cm | humidity % | barometer mb |
| 20260904164043 | 33 | 101 | 4.8 | 6.4 | 0.00 | 0.00 | 0.00 | 50 | 1015.9 |
| 20260904163543 | 33 | 168 | 8.0 | 11.3 | 0.00 | 0.00 | 0.00 | 51 | 1015.9 |
| 20260904163038 | 34 | 209 | 8.0 | 8.0 | 0.00 | 0.00 | 0.00 | 48 | 1016.2 |
| 20260904162532 | 34 | 134 | 4.8 | 6.4 | 0.00 | 0.00 | 0.00 | 50 | 1016.1 |
| 20260904162028 | 33 | 215 | 8.0 | 11.3 | 0.00 | 0.00 | 0.00 | 52 | 1016.1 |
| 20260904161528 | 33 | 252 | 3.2 | 4.8 | 0.00 | 0.00 | 0.00 | 52 | 1016.1 |
| 20260904161024 | 33 | 101 | 6.4 | 6.4 | 0.00 | 0.00 | 0.00 | 52 | 1016.1 |
| 20260904160518 | 33 | 230 | 0.0 | 1.6 | 0.00 | 0.00 | 0.00 | 53 | 1015.9 |
| 20260904160015 | 32 | 218 | 3.2 | 4.8 | 0.00 | 0.00 | 0.00 | 56 | 1016.1 |
| 20260904155514 | 32 | 267 | 3.2 | 4.8 | 0.00 | 0.00 | 0.00 | 57 | 1015.9 |
| 20260904155014 | 32 | 235 | 6.4 | 8.0 | 0.00 | 0.00 | 0.00 | 55 | 1016.2 |
| 20260904154508 | 32 | 240 | 1.6 | 1.6 | 0.00 | 0.00 | 0.00 | 56 | 1016.2 |
| 20260904154002 | 32 | 192 | 1.6 | 1.6 | 0.00 | 0.00 | 0.00 | 57 | 1016.2 |
| 20260904153457 | 32 | 247 | 1.6 | 1.6 | 0.00 | 0.00 | 0.00 | 57 | 1016.3 |
| 20260904152954 | 32 | 181 | 6.4 | 8.0 | 0.00 | 0.00 | 0.00 | 58 | 1016.3 |
| 20260904152450 | 31 | 231 | 1.6 | 1.6 | 0.00 | 0.00 | 0.00 | 59 | 1016.1 |
| 20260904151949 | 31 | 197 | 4.8 | 6.4 | 0.00 | 0.00 | 0.00 | 59 | 1016.3 |
| 20260904151445 | 31 | 244 | 1.6 | 1.6 | 0.00 | 0.00 | 0.00 | 60 | 1016.3 |
| 20260904150944 | 31 | 188 | 1.6 | 1.6 | 0.00 | 0.00 | 0.00 | 61 | 1016.2 |
| 20260904150439 | 30 | 213 | 8.0 | 11.3 | 0.00 | 0.00 | 0.00 | 62 | 1016.3 |
| 20260904145937 | 30 | 246 | 3.2 | 6.4 | 0.00 | 0.00 | 0.00 | 63 | 1016.1 |
| 20260904145434 | 30 | 189 | 6.4 | 11.3 | 0.00 | 0.00 | 0.00 | 62 | 1016.3 |
| 20260904144929 | 30 | 237 | 4.8 | 8.0 | 0.00 | 0.00 | 0.00 | 63 | 1016.4 |
| 20260904144424 | 30 | 113 | 3.2 | 4.8 | 0.00 | 0.00 | 0.00 | 64 | 1016.2 |
| 20260904143920 | 30 | 317 | 3.2 | 4.8 | 0.00 | 0.00 | 0.00 | 64 | 1016.2 |
| 20260904143416 | 29 | 352 | 3.2 | 6.4 | 0.00 | 0.00 | 0.00 | 66 | 1016.1 |
| 20260904142913 | 29 | 172 | 4.8 | 6.4 | 0.00 | 0.00 | 0.00 | 66 | 1016.4 |
| 20260904142409 | 29 | 167 | 3.2 | 4.8 | 0.00 | 0.00 | 0.00 | 66 | 1016.5 |
| 20260904141908 | 29 | 224 | 4.8 | 6.4 | 0.00 | 0.00 | 0.00 | 64 | 1016.5 |
| 20260904141404 | 28 | 187 | 1.6 | 4.8 | 0.00 | 0.00 | 0.00 | 67 | 1016.4 |
| 20260904140901 | 28 | 171 | 1.6 | 1.6 | 0.00 | 0.00 | 0.00 | 68 | 1016.3 |
| 20260904140400 | 28 | 178 | 4.8 | 6.4 | 0.00 | 0.00 | 0.00 | 66 | 1016.3 |
| 20260904135900 | 28 | 195 | 3.2 | 4.8 | 0.00 | 0.00 | 0.00 | 65 | 1016.3 |
| 20260904135354 | 28 | 224 | 1.6 | 1.6 | 0.00 | 0.00 | 0.00 | 67 | 1016.2 |
| 20260904134851 | 28 | 186 | 3.2 | 4.8 | 0.00 | 0.00 | 0.00 | 65 | 1016.3 |
| 20260904134351 | 28 | 183 | 0.0 | 0.0 | 0.00 | 0.00 | 0.00 | 66 | 1016.2 |
| 20260904133850 | 28 | 192 | 0.0 | 0.0 | 0.00 | 0.00 | 0.00 | 68 | 1016.1 |
| 20260904133346 | 26 | 148 | 0.0 | 0.0 | 0.00 | 0.00 | 0.00 | 72 | 1016.2 |
| 20260904132846 | 26 | 213 | 0.0 | 0.0 | 0.00 | 0.00 | 0.00 | 74 | 1016.3 |
| 20260904132341 | 26 | 250 | 0.0 | 0.0 | 0.00 | 0.00 | 0.00 | 75 | 1016.2 |
| 20260904131841 | 25 | 244 | 0.0 | 0.0 | 0.00 | 0.00 | 0.00 | 78 | 1016.4 |
| 20260904131337 | 25 | 241 | 0.0 | 0.0 | 0.00 | 0.00 | 0.00 | 81 | 1016.1 |
| 20260904130837 | 23 | 241 | 0.0 | 0.0 | 0.00 | 0.00 | 0.00 | 86 | 1016.1 |
| 20260904130336 | 22 | 254 | 0.0 | 0.0 | 0.00 | 0.00 | 0.00 | 90 | 1016.1 |
| 20260904125832 | 21 | 234 | 0.0 | 0.0 | 0.00 | 0.00 | 0.00 | 93 | 1015.9 |
| 20260904125328 | 21 | 273 | 0.0 | 0.0 | 0.00 | 0.00 | 0.00 | 95 | 1015.8 |
| 20260904124827 | 20 | 293 | 0.0 | 0.0 | 0.00 | 0.00 | 0.00 | 95 | 1015.8 |
| 20260904124324 | 20 | 293 | 0.0 | 0.0 | 0.00 | 0.00 | 0.00 | 96 | 1015.8 |
| 20260904123819 | 20 | 278 | 0.0 | 0.0 | 0.00 | 0.00 | 0.00 | 96 | 1015.8 |
| 20260904123314 | 20 | 260 | 0.0 | 0.0 | 0.00 | 0.00 | 0.00 | 96 | 1015.9 |
| 20260904122809 | 20 | 243 | 0.0 | 0.0 | 0.00 | 0.00 | 0.00 | 96 | 1015.8 |
| 20260904122308 | 20 | 291 | 0.0 | 0.0 | 0.00 | 0.00 | 0.00 | 96 | 1015.7 |
| 20260904121803 | 20 | 98 | 0.0 | 0.0 | 0.00 | 0.00 | 0.00 | 96 | 1015.8 |
| 20260904121259 | 20 | 268 | 0.0 | 0.0 | 0.00 | 0.00 | 0.00 | 96 | 1015.6 |
| 20260904120756 | 20 | 257 | 0.0 | 0.0 | 0.00 | 0.00 | 0.00 | 96 | 1015.9 |
| 20260904120251 | 20 | 280 | 0.0 | 0.0 | 0.00 | 0.00 | 0.00 | 95 | 1015.6 |
| 20260904115746 | 20 | 269 | 0.0 | 0.0 | 0.00 | 0.00 | 0.00 | 95 | 1015.5 |
| 20260904115242 | 20 | 277 | 0.0 | 0.0 | 0.00 | 0.00 | 0.00 | 95 | 1015.7 |
| 20260904114736 | 20 | 277 | 0.0 | 0.0 | 0.00 | 0.00 | 0.00 | 95 | 1015.5 |
| 20260904114236 | 20 | 242 | 0.0 | 0.0 | 0.00 | 0.00 | 0.00 | 95 | 1015.5 |
| 20260904113731 | 20 | 274 | 0.0 | 0.0 | 0.00 | 0.00 | 0.00 | 95 | 1015.5 |
| 20260904113230 | 20 | 288 | 0.0 | 0.0 | 0.00 | 0.00 | 0.00 | 95 | 1015.4 |
| 20260904112725 | 20 | 279 | 0.0 | 0.0 | 0.00 | 0.00 | 0.00 | 95 | 1015.4 |
| 20260904112221 | 20 | 283 | 0.0 | 0.0 | 0.00 | 0.00 | 0.00 | 95 | 1015.3 |
| 20260904111716 | 20 | 268 | 0.0 | 0.0 | 0.00 | 0.00 | 0.00 | 95 | 1015.3 |
| 20260904111212 | 20 | 289 | 0.0 | 0.0 | 0.00 | 0.00 | 0.00 | 95 | 1015.1 |
| 20260904110708 | 20 | 284 | 0.0 | 0.0 | 0.00 | 0.00 | 0.00 | 95 | 1014.9 |
| 20260904110206 | 20 | 275 | 0.0 | 0.0 | 0.00 | 0.00 | 0.00 | 95 | 1015.1 |
| 20260904105701 | 20 | 266 | 0.0 | 0.0 | 0.00 | 0.00 | 0.00 | 95 | 1015.2 |
| 20260904105156 | 20 | 266 | 0.0 | 0.0 | 0.00 | 0.00 | 0.00 | 94 | 1015.1 |
| 20260904104652 | 20 | 267 | 0.0 | 0.0 | 0.00 | 0.00 | 0.00 | 94 | 1014.9 |
| 20260904104147 | 20 | 278 | 0.0 | 0.0 | 0.00 | 0.00 | 0.00 | 94 | 1015.1 |
| 20260904103644 | 20 | 236 | 0.0 | 0.0 | 0.00 | 0.00 | 0.00 | 94 | 1015.0 |
| 20260904103139 | 20 | 260 | 0.0 | 0.0 | 0.00 | 0.00 | 0.00 | 93 | 1015.0 |
| 20260904102635 | 20 | 260 | 0.0 | 0.0 | 0.00 | 0.00 | 0.00 | 93 | 1015.1 |
| 20260904102129 | 20 | 251 | 0.0 | 0.0 | 0.00 | 0.00 | 0.00 | 93 | 1015.1 |
| 20260904101627 | 20 | 292 | 0.0 | 0.0 | 0.00 | 0.00 | 0.00 | 93 | 1014.8 |
| 20260904101122 | 20 | 315 | 0.0 | 0.0 | 0.00 | 0.00 | 0.00 | 93 | 1014.9 |
| 20260904100618 | 20 | 287 | 0.0 | 0.0 | 0.00 | 0.00 | 0.00 | 94 | 1015.0 |
| 20260904100112 | 20 | 288 | 0.0 | 0.0 | 0.00 | 0.00 | 0.00 | 94 | 1014.9 |
| 20260904095607 | 20 | 291 | 0.0 | 0.0 | 0.00 | 0.00 | 0.00 | 94 | 1014.6 |
| 20260904095102 | 20 | 256 | 0.0 | 0.0 | 0.00 | 0.00 | 0.00 | 94 | 1014.8 |
| 20260904094602 | 20 | 256 | 0.0 | 0.0 | 0.00 | 0.00 | 0.00 | 94 | 1014.7 |
| 20260904094057 | 20 | 240 | 0.0 | 0.0 | 0.00 | 0.00 | 0.00 | 94 | 1014.6 |
| 20260904093555 | 20 | 248 | 0.0 | 0.0 | 0.00 | 0.00 | 0.00 | 94 | 1014.5 |
| 20260904093054 | 20 | 246 | 0.0 | 0.0 | 0.00 | 0.00 | 0.00 | 93 | 1014.6 |
| 20260904092550 | 20 | 252 | 0.0 | 0.0 | 0.00 | 0.00 | 0.00 | 93 | 1014.5 |
| 20260904092047 | 20 | 284 | 0.0 | 0.0 | 0.00 | 0.00 | 0.00 | 93 | 1014.5 |
| 20260904091543 | 20 | 264 | 0.0 | 0.0 | 0.00 | 0.00 | 0.00 | 93 | 1014.5 |
| 20260904091042 | 20 | 258 | 0.0 | 0.0 | 0.00 | 0.00 | 0.00 | 92 | 1014.4 |
| 20260904090537 | 20 | 256 | 0.0 | 0.0 | 0.00 | 0.00 | 0.00 | 92 | 1014.4 |
| 20260904090033 | 20 | 287 | 0.0 | 0.0 | 0.00 | 0.00 | 0.00 | 92 | 1014.4 |
| 20260904085528 | 20 | 274 | 0.0 | 0.0 | 0.00 | 0.00 | 0.00 | 92 | 1014.2 |
| 20260904085028 | 20 | 313 | 0.0 | 0.0 | 0.00 | 0.00 | 0.00 | 92 | 1014.2 |
| 20260904084524 | 20 | 264 | 0.0 | 0.0 | 0.00 | 0.00 | 0.00 | 92 | 1014.2 |
| 20260904084020 | 21 | 231 | 0.0 | 0.0 | 0.00 | 0.00 | 0.00 | 92 | 1014.4 |
| 20260904083516 | 21 | 297 | 0.0 | 0.0 | 0.00 | 0.00 | 0.00 | 92 | 1014.2 |
| 20260904083011 | 21 | 263 | 0.0 | 0.0 | 0.00 | 0.00 | 0.00 | 91 | 1014.1 |
| 20260904082506 | 21 | 283 | 0.0 | 0.0 | 0.00 | 0.00 | 0.00 | 91 | 1014.1 |
| 20260904082001 | 21 | 282 | 0.0 | 0.0 | 0.00 | 0.00 | 0.00 | 91 | 1014.2 |
| 20260904081456 | 21 | 279 | 0.0 | 0.0 | 0.00 | 0.00 | 0.00 | 92 | 1014.3 |
| 20260904080952 | 21 | 284 | 0.0 | 0.0 | 0.00 | 0.00 | 0.00 | 92 | 1014.4 |
| 20260904080447 | 21 | 273 | 0.0 | 0.0 | 0.00 | 0.00 | 0.00 | 92 | 1014.1 |
| 20260904075943 | 21 | 274 | 0.0 | 0.0 | 0.00 | 0.00 | 0.00 | 92 | 1014.1 |
| 20260904075439 | 21 | 253 | 0.0 | 0.0 | 0.00 | 0.00 | 0.00 | 91 | 1014.1 |
| 20260904074938 | 21 | 254 | 0.0 | 0.0 | 0.00 | 0.00 | 0.00 | 91 | 1014.2 |
| 20260904074433 | 21 | 251 | 0.0 | 0.0 | 0.00 | 0.00 | 0.00 | 91 | 1014.3 |
| 20260904073928 | 21 | 270 | 0.0 | 0.0 | 0.00 | 0.00 | 0.00 | 91 | 1014.3 |
| 20260904073424 | 21 | 263 | 0.0 | 0.0 | 0.00 | 0.00 | 0.00 | 91 | 1014.3 |
| 20260904072919 | 21 | 252 | 0.0 | 0.0 | 0.00 | 0.00 | 0.00 | 90 | 1014.4 |
| 20260904072414 | 21 | 228 | 0.0 | 0.0 | 0.00 | 0.00 | 0.00 | 90 | 1014.4 |
| 20260904071910 | 21 | 286 | 0.0 | 0.0 | 0.00 | 0.00 | 0.00 | 90 | 1014.2 |
| 20260904071405 | 21 | 283 | 0.0 | 0.0 | 0.00 | 0.00 | 0.00 | 91 | 1014.1 |
| 20260904070859 | 21 | 257 | 0.0 | 0.0 | 0.00 | 0.00 | 0.00 | 91 | 1014.3 |
| 20260904070358 | 21 | 254 | 0.0 | 0.0 | 0.00 | 0.00 | 0.00 | 90 | 1014.3 |
| 20260904065853 | 21 | 251 | 0.0 | 0.0 | 0.00 | 0.00 | 0.00 | 90 | 1014.3 |
| 20260904065350 | 21 | 257 | 0.0 | 0.0 | 0.00 | 0.00 | 0.00 | 89 | 1014.5 |
| 20260904064849 | 21 | 244 | 0.0 | 0.0 | 0.00 | 0.00 | 0.00 | 89 | 1014.3 |
| 20260904064346 | 21 | 272 | 0.0 | 0.0 | 0.00 | 0.00 | 0.00 | 89 | 1014.3 |
| 20260904063841 | 21 | 246 | 0.0 | 0.0 | 0.00 | 0.00 | 0.00 | 89 | 1014.4 |
| 20260904063337 | 21 | 308 | 0.0 | 0.0 | 0.00 | 0.00 | 0.00 | 89 | 1014.3 |
| 20260904062837 | 21 | 306 | 0.0 | 0.0 | 0.00 | 0.00 | 0.00 | 89 | 1014.2 |
| 20260904062334 | 22 | 264 | 0.0 | 0.0 | 0.00 | 0.00 | 0.00 | 88 | 1014.3 |
| 20260904061829 | 22 | 272 | 0.0 | 0.0 | 0.00 | 0.00 | 0.00 | 87 | 1014.2 |
| 20260904061325 | 22 | 277 | 0.0 | 0.0 | 0.00 | 0.00 | 0.00 | 87 | 1014.0 |
| 20260904060821 | 22 | 272 | 0.0 | 0.0 | 0.00 | 0.00 | 0.00 | 87 | 1014.2 |
| 20260904060317 | 22 | 281 | 0.0 | 0.0 | 0.00 | 0.00 | 0.00 | 87 | 1014.2 |
| 20260904055812 | 22 | 276 | 0.0 | 0.0 | 0.00 | 0.00 | 0.00 | 87 | 1014.3 |
| 20260904055308 | 22 | 274 | 0.0 | 0.0 | 0.00 | 0.00 | 0.00 | 87 | 1014.2 |
| 20260904054803 | 22 | 279 | 0.0 | 0.0 | 0.00 | 0.00 | 0.00 | 87 | 1014.3 |
| 20260904054259 | 22 | 284 | 0.0 | 0.0 | 0.00 | 0.00 | 0.00 | 87 | 1014.2 |
| 20260904053754 | 22 | 261 | 0.0 | 0.0 | 0.00 | 0.00 | 0.00 | 87 | 1014.1 |
| 20260904053253 | 22 | 262 | 0.0 | 0.0 | 0.00 | 0.00 | 0.00 | 87 | 1014.1 |
| 20260904052750 | 22 | 263 | 0.0 | 0.0 | 0.00 | 0.00 | 0.00 | 86 | 1014.2 |
| 20260904052245 | 22 | 263 | 0.0 | 0.0 | 0.00 | 0.00 | 0.00 | 86 | 1014.0 |
| 20260904051742 | 22 | 261 | 0.0 | 0.0 | 0.00 | 0.00 | 0.00 | 85 | 1014.2 |
| 20260904051237 | 22 | 261 | 0.0 | 0.0 | 0.00 | 0.00 | 0.00 | 85 | 1014.2 |
| 20260904050732 | 22 | 261 | 0.0 | 0.0 | 0.00 | 0.00 | 0.00 | 85 | 1014.2 |
| 20260904050229 | 22 | 264 | 0.0 | 0.0 | 0.00 | 0.00 | 0.00 | 84 | 1014.1 |
| 20260904045728 | 22 | 262 | 0.0 | 0.0 | 0.00 | 0.00 | 0.00 | 84 | 1014.2 |
| 20260904045223 | 22 | 272 | 0.0 | 0.0 | 0.00 | 0.00 | 0.00 | 84 | 1014.1 |
| 20260904044718 | 22 | 272 | 0.0 | 0.0 | 0.00 | 0.00 | 0.00 | 83 | 1014.1 |
| 20260904044215 | 23 | 244 | 0.0 | 0.0 | 0.00 | 0.00 | 0.00 | 83 | 1014.0 |
| 20260904043711 | 23 | 242 | 0.0 | 0.0 | 0.00 | 0.00 | 0.00 | 83 | 1014.2 |
| 20260904043207 | 23 | 246 | 0.0 | 0.0 | 0.00 | 0.00 | 0.00 | 82 | 1014.0 |
| 20260904042703 | 23 | 248 | 0.0 | 0.0 | 0.00 | 0.00 | 0.00 | 82 | 1013.9 |
| 20260904042159 | 23 | 278 | 0.0 | 0.0 | 0.00 | 0.00 | 0.00 | 82 | 1014.0 |
| 20260904041653 | 23 | 276 | 0.0 | 0.0 | 0.00 | 0.00 | 0.00 | 82 | 1014.0 |
| 20260904041149 | 23 | 272 | 0.0 | 0.0 | 0.00 | 0.00 | 0.00 | 82 | 1014.1 |
| 20260904040645 | 23 | 222 | 0.0 | 0.0 | 0.00 | 0.00 | 0.00 | 82 | 1013.9 |
| 20260904040141 | 23 | 241 | 0.0 | 0.0 | 0.00 | 0.00 | 0.00 | 81 | 1014.0 |
| 20260904035636 | 23 | 284 | 0.0 | 0.0 | 0.00 | 0.00 | 0.00 | 80 | 1014.1 |
| 20260904035136 | 23 | 283 | 0.0 | 0.0 | 0.00 | 0.00 | 0.00 | 80 | 1013.8 |
| 20260904034635 | 24 | 269 | 0.0 | 0.0 | 0.00 | 0.00 | 0.00 | 80 | 1014.0 |
| 20260904034131 | 24 | 269 | 0.0 | 0.0 | 0.00 | 0.00 | 0.00 | 80 | 1014.0 |
| 20260904033627 | 24 | 237 | 0.0 | 0.0 | 0.00 | 0.00 | 0.00 | 79 | 1013.9 |
| 20260904033124 | 24 | 278 | 0.0 | 0.0 | 0.00 | 0.00 | 0.00 | 78 | 1013.9 |
| 20260904032619 | 24 | 278 | 0.0 | 0.0 | 0.00 | 0.00 | 0.00 | 78 | 1014.2 |
| 20260904032118 | 24 | 277 | 0.0 | 0.0 | 0.00 | 0.00 | 0.00 | 77 | 1013.9 |
| 20260904031618 | 25 | 248 | 0.0 | 0.0 | 0.00 | 0.00 | 0.00 | 77 | 1013.8 |
| 20260904031114 | 25 | 238 | 0.0 | 0.0 | 0.00 | 0.00 | 0.00 | 77 | 1013.7 |
| 20260904030610 | 25 | 270 | 0.0 | 0.0 | 0.00 | 0.00 | 0.00 | 77 | 1013.8 |
| 20260904030105 | 25 | 260 | 0.0 | 0.0 | 0.00 | 0.00 | 0.00 | 76 | 1013.8 |
| 20260904025600 | 25 | 216 | 0.0 | 0.0 | 0.00 | 0.00 | 0.00 | 76 | 1013.6 |
| 20260904025055 | 25 | 245 | 0.0 | 0.0 | 0.00 | 0.00 | 0.00 | 75 | 1013.7 |
| 20260904024551 | 25 | 277 | 0.0 | 0.0 | 0.00 | 0.00 | 0.00 | 74 | 1013.6 |
| 20260904024047 | 25 | 286 | 0.0 | 0.0 | 0.00 | 0.00 | 0.00 | 74 | 1013.6 |
| 20260904023543 | 25 | 261 | 0.0 | 0.0 | 0.00 | 0.00 | 0.00 | 73 | 1013.4 |
| 20260904023038 | 26 | 262 | 0.0 | 0.0 | 0.00 | 0.00 | 0.00 | 73 | 1013.4 |
| 20260904022538 | 26 | 242 | 0.0 | 0.0 | 0.00 | 0.00 | 0.00 | 72 | 1013.4 |
| 20260904022036 | 26 | 265 | 0.0 | 0.0 | 0.00 | 0.00 | 0.00 | 72 | 1013.1 |
| 20260904021531 | 26 | 261 | 0.0 | 0.0 | 0.00 | 0.00 | 0.00 | 71 | 1013.3 |
| 20260904021026 | 26 | 284 | 0.0 | 0.0 | 0.00 | 0.00 | 0.00 | 71 | 1013.1 |
| 20260904020527 | 26 | 244 | 0.0 | 0.0 | 0.00 | 0.00 | 0.00 | 70 | 1013.2 |
| 20260904020027 | 26 | 238 | 0.0 | 0.0 | 0.00 | 0.00 | 0.00 | 70 | 1013.0 |
| 20260904015521 | 26 | 269 | 0.0 | 0.0 | 0.00 | 0.00 | 0.00 | 69 | 1012.7 |
| 20260904015020 | 27 | 184 | 0.0 | 0.0 | 0.00 | 0.00 | 0.00 | 68 | 1012.6 |
| 20260904014514 | 27 | 270 | 0.0 | 0.0 | 0.00 | 0.00 | 0.00 | 67 | 1012.7 |
| 20260904014010 | 27 | 271 | 0.0 | 0.0 | 0.00 | 0.00 | 0.00 | 66 | 1012.6 |
| 20260904013506 | 27 | 270 | 0.0 | 0.0 | 0.00 | 0.00 | 0.00 | 65 | 1012.5 |
| 20260904013003 | 28 | 226 | 0.0 | 0.0 | 0.00 | 0.00 | 0.00 | 64 | 1012.5 |
| 20260904012502 | 28 | 271 | 0.0 | 0.0 | 0.00 | 0.00 | 0.00 | 63 | 1012.4 |
| 20260904012001 | 28 | 266 | 0.0 | 0.0 | 0.00 | 0.00 | 0.00 | 61 | 1012.2 |
| 20260904011456 | 29 | 259 | 0.0 | 0.0 | 0.00 | 0.00 | 0.00 | 59 | 1012.1 |
| 20260904010952 | 30 | 234 | 0.0 | 0.0 | 0.00 | 0.00 | 0.00 | 58 | 1012.2 |
| 20260904010448 | 30 | 274 | 0.0 | 0.0 | 0.00 | 0.00 | 0.00 | 56 | 1012.0 |
| 20260904005943 | 31 | 225 | 1.6 | 1.6 | 0.00 | 0.00 | 0.00 | 53 | 1012.2 |
| 20260904005439 | 31 | 356 | 0.0 | 1.6 | 0.00 | 0.00 | 0.00 | 52 | 1012.1 |
| 20260904004939 | 32 | 227 | 0.0 | 0.0 | 0.00 | 0.00 | 0.00 | 50 | 1012.1 |
| 20260904004435 | 32 | 242 | 0.0 | 0.0 | 0.00 | 0.00 | 0.00 | 48 | 1012.4 |
| 20260904003935 | 32 | 220 | 3.2 | 4.8 | 0.00 | 0.00 | 0.00 | 48 | 1012.1 |
| 20260904003431 | 33 | 167 | 3.2 | 4.8 | 0.00 | 0.00 | 0.00 | 46 | 1012.0 |
| 20260904002926 | 33 | 199 | 4.8 | 8.0 | 0.00 | 0.00 | 0.00 | 46 | 1012.0 |
| 20260904002423 | 33 | 193 | 1.6 | 1.6 | 0.00 | 0.00 | 0.00 | 45 | 1012.1 |
| 20260904001921 | 33 | 212 | 4.8 | 6.4 | 0.00 | 0.00 | 0.00 | 46 | 1012.1 |
| 20260904001417 | 33 | 252 | 0.0 | 0.0 | 0.00 | 0.00 | 0.00 | 45 | 1012.0 |
| 20260904000912 | 34 | 227 | 3.2 | 4.8 | 0.00 | 0.00 | 0.00 | 43 | 1012.0 |
| 20260904000411 | 35 | 239 | 0.0 | 1.6 | 0.00 | 0.00 | 0.00 | 43 | 1011.9 |
| 20260903235906 | 35 | 229 | 3.2 | 4.8 | 0.00 | 0.00 | 0.00 | 42 | 1011.9 |
| 20260903235403 | 35 | 231 | 3.2 | 4.8 | 0.00 | 0.00 | 0.00 | 41 | 1011.9 |
| 20260903234901 | 35 | 202 | 4.8 | 6.4 | 0.00 | 0.00 | 0.00 | 41 | 1011.9 |
| 20260903234358 | 35 | 188 | 6.4 | 6.4 | 0.00 | 0.00 | 0.00 | 40 | 1011.9 |
| 20260903233854 | 35 | 191 | 11.3 | 12.9 | 0.00 | 0.00 | 0.00 | 40 | 1011.9 |
| 20260903233350 | 35 | 233 | 4.8 | 8.0 | 0.00 | 0.00 | 0.00 | 41 | 1011.8 |
| 20260903232849 | 35 | 203 | 8.0 | 11.3 | 0.00 | 0.00 | 0.00 | 40 | 1011.8 |
| 20260903232344 | 35 | 200 | 3.2 | 4.8 | 0.00 | 0.00 | 0.00 | 41 | 1011.9 |
| 20260903231844 | 35 | 215 | 6.4 | 6.4 | 0.00 | 0.00 | 0.00 | 40 | 1011.8 |
| 20260903231339 | 36 | 276 | 1.6 | 1.6 | 0.00 | 0.00 | 0.00 | 40 | 1011.9 |
| 20260903230835 | 35 | 169 | 12.9 | 17.7 | 0.00 | 0.00 | 0.00 | 40 | 1011.8 |
| 20260903230330 | 36 | 188 | 6.4 | 8.0 | 0.00 | 0.00 | 0.00 | 40 | 1011.8 |
| 20260903225826 | 35 | 176 | 3.2 | 6.4 | 0.00 | 0.00 | 0.00 | 41 | 1011.9 |
| 20260903225322 | 35 | 152 | 4.8 | 4.8 | 0.00 | 0.00 | 0.00 | 41 | 1012.0 |
| 20260903224818 | 35 | 163 | 6.4 | 8.0 | 0.00 | 0.00 | 0.00 | 42 | 1011.8 |
| 20260903224314 | 35 | 234 | 3.2 | 4.8 | 0.00 | 0.00 | 0.00 | 42 | 1011.9 |
| 20260903223809 | 35 | 222 | 1.6 | 1.6 | 0.00 | 0.00 | 0.00 | 41 | 1011.8 |
| 20260903223308 | 35 | 215 | 4.8 | 6.4 | 0.00 | 0.00 | 0.00 | 40 | 1011.8 |
| 20260903222803 | 36 | 97 | 3.2 | 4.8 | 0.00 | 0.00 | 0.00 | 39 | 1011.9 |
| 20260903222305 | 36 | 184 | 6.4 | 6.4 | 0.00 | 0.00 | 0.00 | 38 | 1011.6 |
| 20260903221757 | 36 | 65 | 6.4 | 8.0 | 0.00 | 0.00 | 0.00 | 38 | 1011.6 |
| 20260903221255 | 36 | 154 | 8.0 | 11.3 | 0.00 | 0.00 | 0.00 | 39 | 1011.5 |
| 20260903220754 | 36 | 181 | 14.5 | 19.3 | 0.00 | 0.00 | 0.00 | 38 | 1011.6 |
| 20260903220249 | 37 | 160 | 4.8 | 4.8 | 0.00 | 0.00 | 0.00 | 37 | 1011.7 |
| 20260903215747 | 37 | 300 | 3.2 | 6.4 | 0.00 | 0.00 | 0.00 | 37 | 1011.7 |
| 20260903215244 | 36 | 219 | 12.9 | 17.7 | 0.00 | 0.00 | 0.00 | 37 | 1011.9 |
| 20260903214741 | 37 | 156 | 11.3 | 16.1 | 0.00 | 0.00 | 0.00 | 37 | 1011.9 |
| 20260903214239 | 37 | 206 | 8.0 | 8.0 | 0.00 | 0.00 | 0.00 | 36 | 1012.1 |
| 20260903213738 | 37 | 231 | 6.4 | 8.0 | 0.00 | 0.00 | 0.00 | 36 | 1012.0 |
| 20260903213234 | 37 | 203 | 3.2 | 4.8 | 0.00 | 0.00 | 0.00 | 37 | 1012.0 |
| 20260903212730 | 36 | 221 | 12.9 | 16.1 | 0.00 | 0.00 | 0.00 | 37 | 1012.0 |
| 20260903212226 | 35 | 266 | 0.0 | 1.6 | 0.00 | 0.00 | 0.00 | 40 | 1012.1 |
| 20260903211725 | 35 | 190 | 4.8 | 6.4 | 0.00 | 0.00 | 0.00 | 41 | 1012.2 |
| 20260903211222 | 36 | 93 | 11.3 | 17.7 | 0.00 | 0.00 | 0.00 | 38 | 1012.1 |
| 20260903210717 | 36 | 179 | 8.0 | 8.0 | 0.00 | 0.00 | 0.00 | 38 | 1012.1 |
| 20260903210213 | 37 | 223 | 6.4 | 8.0 | 0.00 | 0.00 | 0.00 | 37 | 1012.3 |
| 20260903205712 | 37 | 253 | 4.8 | 11.3 | 0.00 | 0.00 | 0.00 | 37 | 1012.2 |
| 20260903205211 | 37 | 148 | 6.4 | 8.0 | 0.00 | 0.00 | 0.00 | 37 | 1012.2 |
| 20260903204707 | 37 | 197 | 6.4 | 11.3 | 0.00 | 0.00 | 0.00 | 35 | 1012.5 |
| 20260903204203 | 37 | 204 | 8.0 | 11.3 | 0.00 | 0.00 | 0.00 | 37 | 1012.3 |
| 20260903203658 | 36 | 232 | 6.4 | 16.1 | 0.00 | 0.00 | 0.00 | 36 | 1012.5 |
| 20260903203154 | 36 | 140 | 11.3 | 16.1 | 0.00 | 0.00 | 0.00 | 38 | 1012.3 |
| 20260903202648 | 36 | 164 | 6.4 | 8.0 | 0.00 | 0.00 | 0.00 | 38 | 1012.3 |
| 20260903202144 | 37 | 201 | 6.4 | 6.4 | 0.00 | 0.00 | 0.00 | 37 | 1012.6 |
| 20260903201643 | 37 | 192 | 9.7 | 12.9 | 0.00 | 0.00 | 0.00 | 36 | 1012.6 |
| 20260903201143 | 38 | 13 | 8.0 | 11.3 | 0.00 | 0.00 | 0.00 | 35 | 1012.6 |
| 20260903200638 | 38 | 274 | 3.2 | 4.8 | 0.00 | 0.00 | 0.00 | 34 | 1012.7 |
| 20260903200134 | 37 | 202 | 6.4 | 8.0 | 0.00 | 0.00 | 0.00 | 37 | 1012.8 |
| 20260903195630 | 38 | 179 | 4.8 | 6.4 | 0.00 | 0.00 | 0.00 | 37 | 1012.8 |
| 20260903195125 | 37 | 271 | 1.6 | 1.6 | 0.00 | 0.00 | 0.00 | 36 | 1012.8 |
| 20260903194620 | 36 | 216 | 9.7 | 16.1 | 0.00 | 0.00 | 0.00 | 38 | 1013.0 |
| 20260903194120 | 37 | 123 | 12.9 | 17.7 | 0.00 | 0.00 | 0.00 | 38 | 1013.2 |
| 20260903193616 | 37 | 198 | 9.7 | 12.9 | 0.00 | 0.00 | 0.00 | 36 | 1013.0 |
| 20260903193111 | 36 | 72 | 3.2 | 6.4 | 0.00 | 0.00 | 0.00 | 39 | 1013.0 |
| 20260903192608 | 37 | 220 | 9.7 | 11.3 | 0.00 | 0.00 | 0.00 | 39 | 1013.2 |
| 20260903192103 | 37 | 237 | 8.0 | 12.9 | 0.00 | 0.00 | 0.00 | 38 | 1013.4 |
| 20260903191559 | 36 | 164 | 4.8 | 8.0 | 0.00 | 0.00 | 0.00 | 39 | 1013.3 |
| 20260903191054 | 35 | 278 | 4.8 | 6.4 | 0.00 | 0.00 | 0.00 | 41 | 1013.5 |
| 20260903190553 | 36 | 221 | 4.8 | 8.0 | 0.00 | 0.00 | 0.00 | 40 | 1013.4 |
| 20260903190053 | 36 | 184 | 8.0 | 8.0 | 0.00 | 0.00 | 0.00 | 40 | 1013.5 |
| 20260903185548 | 37 | 206 | 6.4 | 8.0 | 0.00 | 0.00 | 0.00 | 38 | 1013.5 |
| 20260903185044 | 36 | 207 | 1.6 | 4.8 | 0.00 | 0.00 | 0.00 | 39 | 1013.8 |
| 20260903184540 | 36 | 209 | 6.4 | 8.0 | 0.00 | 0.00 | 0.00 | 40 | 1013.6 |
| 20260903184035 | 35 | 199 | 3.2 | 4.8 | 0.00 | 0.00 | 0.00 | 42 | 1013.8 |
| 20260903183534 | 36 | 214 | 8.0 | 8.0 | 0.00 | 0.00 | 0.00 | 41 | 1014.1 |
| 20260903183029 | 36 | 259 | 8.0 | 16.1 | 0.00 | 0.00 | 0.00 | 41 | 1014.1 |
| 20260903182527 | 36 | 247 | 0.0 | 1.6 | 0.00 | 0.00 | 0.00 | 41 | 1013.9 |
| 20260903182025 | 36 | 247 | 6.4 | 8.0 | 0.00 | 0.00 | 0.00 | 41 | 1014.0 |
| 20260903181523 | 35 | 257 | 3.2 | 6.4 | 0.00 | 0.00 | 0.00 | 42 | 1014.0 |
| 20260903181023 | 35 | 206 | 8.0 | 11.3 | 0.00 | 0.00 | 0.00 | 44 | 1014.1 |
| 20260903180518 | 35 | 109 | 12.9 | 19.3 | 0.00 | 0.00 | 0.00 | 43 | 1014.4 |
| 20260903180018 | 35 | 206 | 8.0 | 8.0 | 0.00 | 0.00 | 0.00 | 43 | 1014.4 |
| 20260903175517 | 35 | 180 | 3.2 | 6.4 | 0.00 | 0.00 | 0.00 | 44 | 1014.5 |
| 20260903175016 | 35 | 263 | 9.7 | 12.9 | 0.00 | 0.00 | 0.00 | 44 | 1014.5 |
| 20260903174511 | 34 | 227 | 6.4 | 6.4 | 0.00 | 0.00 | 0.00 | 45 | 1014.4 |
| 20260903174006 | 34 | 166 | 8.0 | 11.3 | 0.00 | 0.00 | 0.00 | 44 | 1014.8 |
| 20260903173501 | 35 | 197 | 9.7 | 11.3 | 0.00 | 0.00 | 0.00 | 43 | 1014.7 |
| 20260903172956 | 35 | 201 | 8.0 | 8.0 | 0.00 | 0.00 | 0.00 | 44 | 1014.8 |
| 20260903172452 | 35 | 223 | 6.4 | 8.0 | 0.00 | 0.00 | 0.00 | 44 | 1014.8 |
| 20260903171947 | 34 | 198 | 6.4 | 8.0 | 0.00 | 0.00 | 0.00 | 45 | 1014.8 |
| 20260903171442 | 34 | 201 | 6.4 | 8.0 | 0.00 | 0.00 | 0.00 | 45 | 1014.7 |
| 20260903170937 | 34 | 229 | 17.7 | 22.5 | 0.00 | 0.00 | 0.00 | 44 | 1015.0 |
| 20260903170436 | 34 | 239 | 4.8 | 8.0 | 0.00 | 0.00 | 0.00 | 46 | 1014.8 |
| 20260903165936 | 33 | 200 | 8.0 | 11.3 | 0.00 | 0.00 | 0.00 | 47 | 1015.0 |
| 20260903165430 | 33 | 221 | 3.2 | 4.8 | 0.00 | 0.00 | 0.00 | 48 | 1015.0 |
| 20260903164930 | 33 | 170 | 6.4 | 8.0 | 0.00 | 0.00 | 0.00 | 48 | 1015.1 |
| 20260903164425 | 33 | 204 | 8.0 | 11.3 | 0.00 | 0.00 | 0.00 | 48 | 1015.3 |